Year,Month,Day,Hour,Minute,Value (Times are PST for temperature in C)
2008,04,11,00,00,5.10
2008,04,11,00,01,5.20
2008,04,11,00,02,5.20
2008,04,11,00,03,5.10
2008,04,11,00,04,5.10
2008,04,11,00,05,5.10
2008,04,11,00,06,5.10
2008,04,11,00,07,5.10
2008,04,11,00,08,5.10
2008,04,11,00,09,5.10
2008,04,11,00,10,5.10
2008,04,11,00,11,5.10
2008,04,11,00,12,5.10
2008,04,11,00,13,5.10
2008,04,11,00,14,5.10
2008,04,11,00,15,5.10
2008,04,11,00,16,5.10
2008,04,11,00,17,5.10
2008,04,11,00,18,5.10
2008,04,11,00,19,5.10
2008,04,11,00,20,5.10
2008,04,11,00,21,5.10
2008,04,11,00,22,5.10
2008,04,11,00,23,5.10
2008,04,11,00,24,5.10
2008,04,11,00,25,5.10
2008,04,11,00,26,5.10
2008,04,11,00,27,5.10
2008,04,11,00,28,5.10
2008,04,11,00,29,5.10
2008,04,11,00,30,5.10
2008,04,11,00,31,5.10
2008,04,11,00,32,5.10
2008,04,11,00,33,5.10
2008,04,11,00,34,5.10
2008,04,11,00,35,5.10
2008,04,11,00,36,5.10
2008,04,11,00,37,5.10
2008,04,11,00,38,5.10
2008,04,11,00,39,5.10
2008,04,11,00,40,5.10
2008,04,11,00,41,5.10
2008,04,11,00,42,5.10
2008,04,11,00,43,5.10
2008,04,11,00,44,5.10
2008,04,11,00,45,5.10
2008,04,11,00,46,5.10
2008,04,11,00,47,5.10
2008,04,11,00,48,5.10
2008,04,11,00,49,5.10
2008,04,11,00,50,5.10
2008,04,11,00,51,5.10
2008,04,11,00,52,5.10
2008,04,11,00,53,5.10
2008,04,11,00,54,5.10
2008,04,11,00,55,5.10
2008,04,11,00,56,5.10
2008,04,11,00,57,5.10
2008,04,11,00,58,5.10
2008,04,11,00,59,5.10
2008,04,11,01,00,5.10
2008,04,11,01,01,5.10
2008,04,11,01,02,5.10
2008,04,11,01,03,5.10
2008,04,11,01,04,5.10
2008,04,11,01,05,5.10
2008,04,11,01,06,5.10
2008,04,11,01,07,5.10
2008,04,11,01,08,5.10
2008,04,11,01,09,5.20
2008,04,11,01,10,5.20
2008,04,11,01,11,5.20
2008,04,11,01,12,5.20
2008,04,11,01,13,5.20
2008,04,11,01,14,5.20
2008,04,11,01,15,5.20
2008,04,11,01,16,5.20
2008,04,11,01,17,5.20
2008,04,11,01,18,5.20
2008,04,11,01,19,5.20
2008,04,11,01,20,5.20
2008,04,11,01,21,5.20
2008,04,11,01,22,5.20
2008,04,11,01,23,5.20
2008,04,11,01,24,5.20
2008,04,11,01,25,5.20
2008,04,11,01,26,5.20
2008,04,11,01,27,5.20
2008,04,11,01,28,5.20
2008,04,11,01,29,5.20
2008,04,11,01,30,5.20
2008,04,11,01,31,5.10
2008,04,11,01,32,5.10
2008,04,11,01,33,5.10
2008,04,11,01,34,5.20
2008,04,11,01,35,5.10
2008,04,11,01,36,5.10
2008,04,11,01,37,5.10
2008,04,11,01,38,5.10
2008,04,11,01,39,5.10
2008,04,11,01,40,5.10
2008,04,11,01,41,5.10
2008,04,11,01,42,5.10
2008,04,11,01,43,5.00
2008,04,11,01,44,5.00
2008,04,11,01,45,5.00
2008,04,11,01,46,5.00
2008,04,11,01,47,5.00
2008,04,11,01,48,5.00
2008,04,11,01,49,5.00
2008,04,11,01,50,5.00
2008,04,11,01,51,5.00
2008,04,11,01,52,5.00
2008,04,11,01,53,5.00
2008,04,11,01,54,5.00
2008,04,11,01,55,5.00
2008,04,11,01,56,5.00
2008,04,11,01,57,5.00
2008,04,11,01,58,5.00
2008,04,11,01,59,5.00
2008,04,11,02,00,5.00
2008,04,11,02,01,5.00
2008,04,11,02,02,4.90
2008,04,11,02,03,4.90
2008,04,11,02,04,4.90
2008,04,11,02,05,5.00
2008,04,11,02,06,5.00
2008,04,11,02,07,5.00
2008,04,11,02,08,5.00
2008,04,11,02,09,5.00
2008,04,11,02,10,5.00
2008,04,11,02,11,5.00
2008,04,11,02,12,5.00
2008,04,11,02,13,5.00
2008,04,11,02,14,5.00
2008,04,11,02,15,5.00
2008,04,11,02,16,5.00
2008,04,11,02,17,5.00
2008,04,11,02,18,5.00
2008,04,11,02,19,5.00
2008,04,11,02,20,5.00
2008,04,11,02,21,5.00
2008,04,11,02,22,5.00
2008,04,11,02,23,5.00
2008,04,11,02,24,4.90
2008,04,11,02,25,4.90
2008,04,11,02,26,4.90
2008,04,11,02,27,4.90
2008,04,11,02,28,4.90
2008,04,11,02,29,4.90
2008,04,11,02,30,4.90
2008,04,11,02,31,4.90
2008,04,11,02,32,4.90
2008,04,11,02,33,4.90
2008,04,11,02,34,4.90
2008,04,11,02,35,4.90
2008,04,11,02,36,4.90
2008,04,11,02,37,4.90
2008,04,11,02,38,4.90
2008,04,11,02,39,4.90
2008,04,11,02,40,4.90
2008,04,11,02,41,4.90
2008,04,11,02,42,4.90
2008,04,11,02,43,4.90
2008,04,11,02,44,4.90
2008,04,11,02,45,4.90
2008,04,11,02,46,4.90
2008,04,11,02,47,4.90
2008,04,11,02,48,4.90
2008,04,11,02,49,4.90
2008,04,11,02,50,4.90
2008,04,11,02,51,4.90
2008,04,11,02,52,4.90
2008,04,11,02,53,4.90
2008,04,11,02,54,4.90
2008,04,11,02,55,4.90
2008,04,11,02,56,4.90
2008,04,11,02,57,4.90
2008,04,11,02,58,4.90
2008,04,11,02,59,4.90
2008,04,11,03,00,4.90
2008,04,11,03,01,4.90
2008,04,11,03,02,4.90
2008,04,11,03,03,4.90
2008,04,11,03,04,4.90
2008,04,11,03,05,4.90
2008,04,11,03,06,4.90
2008,04,11,03,07,4.90
2008,04,11,03,08,4.80
2008,04,11,03,09,4.80
2008,04,11,03,10,4.80
2008,04,11,03,11,4.80
2008,04,11,03,12,4.80
2008,04,11,03,13,4.80
2008,04,11,03,14,4.80
2008,04,11,03,15,4.80
2008,04,11,03,16,4.80
2008,04,11,03,17,4.80
2008,04,11,03,18,4.80
2008,04,11,03,19,4.80
2008,04,11,03,20,4.80
2008,04,11,03,21,4.80
2008,04,11,03,22,4.80
2008,04,11,03,23,4.80
2008,04,11,03,24,4.80
2008,04,11,03,25,4.80
2008,04,11,03,26,4.80
2008,04,11,03,27,4.80
2008,04,11,03,28,4.80
2008,04,11,03,29,4.80
2008,04,11,03,30,4.80
2008,04,11,03,31,4.80
2008,04,11,03,32,4.80
2008,04,11,03,33,4.80
2008,04,11,03,34,4.80
2008,04,11,03,35,4.80
2008,04,11,03,36,4.80
2008,04,11,03,37,4.80
2008,04,11,03,38,4.80
2008,04,11,03,39,4.70
2008,04,11,03,40,4.70
2008,04,11,03,41,4.70
2008,04,11,03,42,4.70
2008,04,11,03,43,4.70
2008,04,11,03,44,4.70
2008,04,11,03,45,4.70
2008,04,11,03,46,4.70
2008,04,11,03,47,4.70
2008,04,11,03,48,4.70
2008,04,11,03,49,4.70
2008,04,11,03,50,4.70
2008,04,11,03,51,4.70
2008,04,11,03,52,4.70
2008,04,11,03,53,4.80
2008,04,11,03,54,4.80
2008,04,11,03,55,4.70
2008,04,11,03,56,4.70
2008,04,11,03,57,4.70
2008,04,11,03,58,4.70
2008,04,11,03,59,4.70
2008,04,11,04,00,4.70
2008,04,11,04,01,4.70
2008,04,11,04,02,4.70
2008,04,11,04,03,4.70
2008,04,11,04,04,4.70
2008,04,11,04,05,4.70
2008,04,11,04,06,4.70
2008,04,11,04,07,4.60
2008,04,11,04,08,4.60
2008,04,11,04,09,4.60
2008,04,11,04,10,4.60
2008,04,11,04,11,4.60
2008,04,11,04,12,4.60
2008,04,11,04,13,4.60
2008,04,11,04,14,4.60
2008,04,11,04,15,4.60
2008,04,11,04,16,4.60
2008,04,11,04,17,4.60
2008,04,11,04,18,4.60
2008,04,11,04,19,4.60
2008,04,11,04,20,4.60
2008,04,11,04,21,4.60
2008,04,11,04,22,4.60
2008,04,11,04,23,4.60
2008,04,11,04,24,4.60
2008,04,11,04,25,4.60
2008,04,11,04,26,4.60
2008,04,11,04,27,4.50
2008,04,11,04,28,4.50
2008,04,11,04,29,4.60
2008,04,11,04,30,4.50
2008,04,11,04,31,4.60
2008,04,11,04,32,4.50
2008,04,11,04,33,4.60
2008,04,11,04,34,4.50
2008,04,11,04,35,4.60
2008,04,11,04,36,4.60
2008,04,11,04,37,4.60
2008,04,11,04,38,4.60
2008,04,11,04,39,4.60
2008,04,11,04,40,4.60
2008,04,11,04,41,4.60
2008,04,11,04,42,4.60
2008,04,11,04,43,4.60
2008,04,11,04,44,4.60
2008,04,11,04,45,4.60
2008,04,11,04,46,4.60
2008,04,11,04,47,4.60
2008,04,11,04,48,4.60
2008,04,11,04,49,4.60
2008,04,11,04,50,4.60
2008,04,11,04,51,4.60
2008,04,11,04,52,4.60
2008,04,11,04,53,4.60
2008,04,11,04,54,4.50
2008,04,11,04,55,4.60
2008,04,11,04,56,4.60
2008,04,11,04,57,4.60
2008,04,11,04,58,4.60
2008,04,11,04,59,4.60
2008,04,11,05,00,4.60
2008,04,11,05,01,4.60
2008,04,11,05,02,4.60
2008,04,11,05,03,4.60
2008,04,11,05,04,4.60
2008,04,11,05,05,4.60
2008,04,11,05,06,4.60
2008,04,11,05,07,4.60
2008,04,11,05,08,4.60
2008,04,11,05,09,4.60
2008,04,11,05,10,4.60
2008,04,11,05,11,4.60
2008,04,11,05,12,4.60
2008,04,11,05,13,4.60
2008,04,11,05,14,4.60
2008,04,11,05,15,4.60
2008,04,11,05,16,4.60
2008,04,11,05,17,4.60
2008,04,11,05,18,4.60
2008,04,11,05,19,4.60
2008,04,11,05,20,4.60
2008,04,11,05,21,4.70
2008,04,11,05,22,4.70
2008,04,11,05,23,4.70
2008,04,11,05,24,4.70
2008,04,11,05,25,4.70
2008,04,11,05,26,4.70
2008,04,11,05,27,4.70
2008,04,11,05,28,4.70
2008,04,11,05,29,4.70
2008,04,11,05,30,4.70
2008,04,11,05,31,4.70
2008,04,11,05,32,4.70
2008,04,11,05,33,4.70
2008,04,11,05,34,4.70
2008,04,11,05,35,4.70
2008,04,11,05,36,4.70
2008,04,11,05,37,4.70
2008,04,11,05,38,4.70
2008,04,11,05,39,4.60
2008,04,11,05,40,4.60
2008,04,11,05,41,4.60
2008,04,11,05,42,4.60
2008,04,11,05,43,4.60
2008,04,11,05,44,4.60
2008,04,11,05,45,4.60
2008,04,11,05,46,4.60
2008,04,11,05,47,4.60
2008,04,11,05,48,4.60
2008,04,11,05,49,4.60
2008,04,11,05,50,4.60
2008,04,11,05,51,4.60
2008,04,11,05,52,4.60
2008,04,11,05,53,4.60
2008,04,11,05,54,4.60
2008,04,11,05,55,4.60
2008,04,11,05,56,4.60
2008,04,11,05,57,4.60
2008,04,11,05,58,4.70
2008,04,11,05,59,4.70
2008,04,11,06,00,4.70
2008,04,11,06,01,4.70
2008,04,11,06,02,4.70
2008,04,11,06,03,4.70
2008,04,11,06,04,4.70
2008,04,11,06,05,4.70
2008,04,11,06,06,4.70
2008,04,11,06,07,4.70
2008,04,11,06,08,4.70
2008,04,11,06,09,4.70
2008,04,11,06,10,4.70
2008,04,11,06,11,4.70
2008,04,11,06,12,4.70
2008,04,11,06,13,4.70
2008,04,11,06,14,4.70
2008,04,11,06,15,4.70
2008,04,11,06,16,4.70
2008,04,11,06,17,4.70
2008,04,11,06,18,4.70
2008,04,11,06,19,4.70
2008,04,11,06,20,4.70
2008,04,11,06,21,4.70
2008,04,11,06,22,4.70
2008,04,11,06,23,4.70
2008,04,11,06,24,4.70
2008,04,11,06,25,4.70
2008,04,11,06,26,4.70
2008,04,11,06,27,4.70
2008,04,11,06,28,4.70
2008,04,11,06,29,4.70
2008,04,11,06,30,4.70
2008,04,11,06,31,4.70
2008,04,11,06,32,4.70
2008,04,11,06,33,4.70
2008,04,11,06,34,4.70
2008,04,11,06,35,4.70
2008,04,11,06,36,4.70
2008,04,11,06,37,4.70
2008,04,11,06,38,4.70
2008,04,11,06,39,4.70
2008,04,11,06,40,4.70
2008,04,11,06,41,4.70
2008,04,11,06,42,4.70
2008,04,11,06,43,4.70
2008,04,11,06,44,4.70
2008,04,11,06,45,4.70
2008,04,11,06,46,4.70
2008,04,11,06,47,4.70
2008,04,11,06,48,4.70
2008,04,11,06,49,4.70
2008,04,11,06,50,4.70
2008,04,11,06,51,4.70
2008,04,11,06,52,4.70
2008,04,11,06,53,4.60
2008,04,11,06,54,4.60
2008,04,11,06,55,4.60
2008,04,11,06,56,4.60
2008,04,11,06,57,4.60
2008,04,11,06,58,4.60
2008,04,11,06,59,4.60
2008,04,11,07,00,4.60
2008,04,11,07,01,4.60
2008,04,11,07,02,4.60
2008,04,11,07,03,4.60
2008,04,11,07,04,4.60
2008,04,11,07,05,4.60
2008,04,11,07,06,4.70
2008,04,11,07,07,4.70
2008,04,11,07,08,4.70
2008,04,11,07,09,4.70
2008,04,11,07,10,4.70
2008,04,11,07,11,4.70
2008,04,11,07,12,4.70
2008,04,11,07,13,4.70
2008,04,11,07,14,4.70
2008,04,11,07,15,4.70
2008,04,11,07,16,4.70
2008,04,11,07,17,4.70
2008,04,11,07,18,4.70
2008,04,11,07,19,4.70
2008,04,11,07,20,4.70
2008,04,11,07,21,4.70
2008,04,11,07,22,4.70
2008,04,11,07,23,4.70
2008,04,11,07,24,4.70
2008,04,11,07,25,4.70
2008,04,11,07,26,4.70
2008,04,11,07,27,4.70
2008,04,11,07,28,4.70
2008,04,11,07,29,4.70
2008,04,11,07,30,4.70
2008,04,11,07,31,4.70
2008,04,11,07,32,4.70
2008,04,11,07,33,4.70
2008,04,11,07,34,4.70
2008,04,11,07,35,4.70
2008,04,11,07,36,4.70
2008,04,11,07,37,4.70
2008,04,11,07,38,4.70
2008,04,11,07,39,4.80
2008,04,11,07,40,4.80
2008,04,11,07,41,4.80
2008,04,11,07,42,4.80
2008,04,11,07,43,4.80
2008,04,11,07,44,4.80
2008,04,11,07,45,4.80
2008,04,11,07,46,4.80
2008,04,11,07,47,4.80
2008,04,11,07,48,4.80
2008,04,11,07,49,4.80
2008,04,11,07,50,4.80
2008,04,11,07,51,4.80
2008,04,11,07,52,4.80
2008,04,11,07,53,4.80
2008,04,11,07,54,4.80
2008,04,11,07,55,4.80
2008,04,11,07,56,4.80
2008,04,11,07,57,4.80
2008,04,11,07,58,4.80
2008,04,11,07,59,4.80
2008,04,11,08,00,4.80
2008,04,11,08,01,4.90
2008,04,11,08,02,4.90
2008,04,11,08,03,4.90
2008,04,11,08,04,4.90
2008,04,11,08,05,4.90
2008,04,11,08,06,4.90
2008,04,11,08,07,5.00
2008,04,11,08,08,5.00
2008,04,11,08,09,5.00
2008,04,11,08,10,5.00
2008,04,11,08,11,5.00
2008,04,11,08,12,5.10
2008,04,11,08,13,5.10
2008,04,11,08,14,5.10
2008,04,11,08,15,5.10
2008,04,11,08,16,5.10
2008,04,11,08,17,5.10
2008,04,11,08,18,5.10
2008,04,11,08,19,5.10
2008,04,11,08,20,5.10
2008,04,11,08,21,5.10
2008,04,11,08,22,5.10
2008,04,11,08,23,5.10
2008,04,11,08,24,5.10
2008,04,11,08,25,5.10
2008,04,11,08,26,5.10
2008,04,11,08,27,5.10
2008,04,11,08,28,5.10
2008,04,11,08,29,5.10
2008,04,11,08,30,5.10
2008,04,11,08,31,5.10
2008,04,11,08,32,5.10
2008,04,11,08,33,5.10
2008,04,11,08,34,5.10
2008,04,11,08,35,5.10
2008,04,11,08,36,5.10
2008,04,11,08,37,5.10
2008,04,11,08,38,5.10
2008,04,11,08,39,5.10
2008,04,11,08,40,5.20
2008,04,11,08,41,5.20
2008,04,11,08,42,5.20
2008,04,11,08,43,5.20
2008,04,11,08,44,5.20
2008,04,11,08,45,5.20
2008,04,11,08,46,5.20
2008,04,11,08,47,5.20
2008,04,11,08,48,5.20
2008,04,11,08,49,5.20
2008,04,11,08,50,5.20
2008,04,11,08,51,5.20
2008,04,11,08,52,5.30
2008,04,11,08,53,5.30
2008,04,11,08,54,5.30
2008,04,11,08,55,5.30
2008,04,11,08,56,5.30
2008,04,11,08,57,5.30
2008,04,11,08,58,5.30
2008,04,11,08,59,5.30
2008,04,11,09,00,5.30
2008,04,11,09,01,5.40
2008,04,11,09,02,5.40
2008,04,11,09,03,5.40
2008,04,11,09,04,5.40
2008,04,11,09,05,5.40
2008,04,11,09,06,5.40
2008,04,11,09,07,5.50
2008,04,11,09,08,5.50
2008,04,11,09,09,5.50
2008,04,11,09,10,5.50
2008,04,11,09,11,5.60
2008,04,11,09,12,5.60
2008,04,11,09,13,5.60
2008,04,11,09,14,5.60
2008,04,11,09,15,5.60
2008,04,11,09,16,5.60
2008,04,11,09,17,5.60
2008,04,11,09,18,5.70
2008,04,11,09,19,5.70
2008,04,11,09,20,5.70
2008,04,11,09,21,5.70
2008,04,11,09,22,5.70
2008,04,11,09,23,5.70
2008,04,11,09,24,5.70
2008,04,11,09,25,5.70
2008,04,11,09,26,5.70
2008,04,11,09,27,5.80
2008,04,11,09,28,5.80
2008,04,11,09,29,5.80
2008,04,11,09,30,5.80
2008,04,11,09,31,5.80
2008,04,11,09,32,5.80
2008,04,11,09,33,5.90
2008,04,11,09,34,5.90
2008,04,11,09,35,5.90
2008,04,11,09,36,5.90
2008,04,11,09,37,5.90
2008,04,11,09,38,5.90
2008,04,11,09,39,6.00
2008,04,11,09,40,6.00
2008,04,11,09,41,6.00
2008,04,11,09,42,6.10
2008,04,11,09,43,6.10
2008,04,11,09,44,6.10
2008,04,11,09,45,6.10
2008,04,11,09,46,6.10
2008,04,11,09,47,6.10
2008,04,11,09,48,6.20
2008,04,11,09,49,6.20
2008,04,11,09,50,6.20
2008,04,11,09,51,6.20
2008,04,11,09,52,6.20
2008,04,11,09,53,6.20
2008,04,11,09,54,6.20
2008,04,11,09,55,6.30
2008,04,11,09,56,6.30
2008,04,11,09,57,6.30
2008,04,11,09,58,6.30
2008,04,11,09,59,6.40
2008,04,11,10,00,6.40
2008,04,11,10,01,6.40
2008,04,11,10,02,6.40
2008,04,11,10,03,6.50
2008,04,11,10,04,6.50
2008,04,11,10,05,6.50
2008,04,11,10,06,6.50
2008,04,11,10,07,6.50
2008,04,11,10,08,6.40
2008,04,11,10,09,6.40
2008,04,11,10,10,6.40
2008,04,11,10,11,6.50
2008,04,11,10,12,6.50
2008,04,11,10,13,6.50
2008,04,11,10,14,6.40
2008,04,11,10,15,6.40
2008,04,11,10,16,6.40
2008,04,11,10,17,6.40
2008,04,11,10,18,6.40
2008,04,11,10,19,6.40
2008,04,11,10,20,6.40
2008,04,11,10,21,6.40
2008,04,11,10,22,6.40
2008,04,11,10,23,6.40
2008,04,11,10,24,6.40
2008,04,11,10,25,6.40
2008,04,11,10,26,6.40
2008,04,11,10,27,6.40
2008,04,11,10,28,6.40
2008,04,11,10,29,6.40
2008,04,11,10,30,6.50
2008,04,11,10,31,6.50
2008,04,11,10,32,6.50
2008,04,11,10,33,6.60
2008,04,11,10,34,6.60
2008,04,11,10,35,6.70
2008,04,11,10,36,6.70
2008,04,11,10,37,6.80
2008,04,11,10,38,6.80
2008,04,11,10,39,6.80
2008,04,11,10,40,6.90
2008,04,11,10,41,6.90
2008,04,11,10,42,7.00
2008,04,11,10,43,7.00
2008,04,11,10,44,7.00
2008,04,11,10,45,7.10
2008,04,11,10,46,7.10
2008,04,11,10,47,7.10
2008,04,11,10,48,7.10
2008,04,11,10,49,7.10
2008,04,11,10,50,7.10
2008,04,11,10,51,7.10
2008,04,11,10,52,7.10
2008,04,11,10,53,7.10
2008,04,11,10,54,7.20
2008,04,11,10,55,7.20
2008,04,11,10,56,7.20
2008,04,11,10,57,7.20
2008,04,11,10,58,7.20
2008,04,11,10,59,7.20
2008,04,11,11,00,7.10
2008,04,11,11,01,7.10
2008,04,11,11,02,7.20
2008,04,11,11,03,7.20
2008,04,11,11,04,7.20
2008,04,11,11,05,7.20
2008,04,11,11,06,7.20
2008,04,11,11,07,7.20
2008,04,11,11,08,7.30
2008,04,11,11,09,7.30
2008,04,11,11,10,7.30
2008,04,11,11,11,7.30
2008,04,11,11,12,7.20
2008,04,11,11,13,7.20
2008,04,11,11,14,7.20
2008,04,11,11,15,7.20
2008,04,11,11,16,7.10
2008,04,11,11,17,7.10
2008,04,11,11,18,7.10
2008,04,11,11,19,7.10
2008,04,11,11,20,7.10
2008,04,11,11,21,7.20
2008,04,11,11,22,7.20
2008,04,11,11,23,7.20
2008,04,11,11,24,7.20
2008,04,11,11,25,7.20
2008,04,11,11,26,7.20
2008,04,11,11,27,7.20
2008,04,11,11,28,7.20
2008,04,11,11,29,7.20
2008,04,11,11,30,7.30
2008,04,11,11,31,7.30
2008,04,11,11,32,7.30
2008,04,11,11,33,7.40
2008,04,11,11,34,7.50
2008,04,11,11,35,7.50
2008,04,11,11,36,7.60
2008,04,11,11,37,7.70
2008,04,11,11,38,7.70
2008,04,11,11,39,7.70
2008,04,11,11,40,7.80
2008,04,11,11,41,7.80
2008,04,11,11,42,7.70
2008,04,11,11,43,7.70
2008,04,11,11,44,7.60
2008,04,11,11,45,7.60
2008,04,11,11,46,7.50
2008,04,11,11,47,7.50
2008,04,11,11,48,7.50
2008,04,11,11,49,7.50
2008,04,11,11,50,7.60
2008,04,11,11,51,7.60
2008,04,11,11,52,7.60
2008,04,11,11,53,7.70
2008,04,11,11,54,7.70
2008,04,11,11,55,7.70
2008,04,11,11,56,7.80
2008,04,11,11,57,7.80
2008,04,11,11,58,7.80
2008,04,11,11,59,7.80
2008,04,11,12,00,7.80
2008,04,11,12,01,7.80
2008,04,11,12,02,7.80
2008,04,11,12,03,7.90
2008,04,11,12,04,7.90
2008,04,11,12,05,7.90
2008,04,11,12,06,7.90
2008,04,11,12,07,7.90
2008,04,11,12,08,7.90
2008,04,11,12,09,8.00
2008,04,11,12,10,8.00
2008,04,11,12,11,8.00
2008,04,11,12,12,8.00
2008,04,11,12,13,8.00
2008,04,11,12,14,8.00
2008,04,11,12,15,8.00
2008,04,11,12,16,8.00
2008,04,11,12,17,8.00
2008,04,11,12,18,7.90
2008,04,11,12,19,7.90
2008,04,11,12,20,7.90
2008,04,11,12,21,7.90
2008,04,11,12,22,7.90
2008,04,11,12,23,7.90
2008,04,11,12,24,7.90
2008,04,11,12,25,7.90
2008,04,11,12,26,8.00
2008,04,11,12,27,8.00
2008,04,11,12,28,8.10
2008,04,11,12,29,8.10
2008,04,11,12,30,8.10
2008,04,11,12,31,8.00
2008,04,11,12,32,8.00
2008,04,11,12,33,8.00
2008,04,11,12,34,8.10
2008,04,11,12,35,8.10
2008,04,11,12,36,8.10
2008,04,11,12,37,8.20
2008,04,11,12,38,8.30
2008,04,11,12,39,8.30
2008,04,11,12,40,8.30
2008,04,11,12,41,8.40
2008,04,11,12,42,8.50
2008,04,11,12,43,8.50
2008,04,11,12,44,8.60
2008,04,11,12,45,8.60
2008,04,11,12,46,8.60
2008,04,11,12,47,8.60
2008,04,11,12,48,8.60
2008,04,11,12,49,8.60
2008,04,11,12,50,8.60
2008,04,11,12,51,8.60
2008,04,11,12,52,8.60
2008,04,11,12,53,8.70
2008,04,11,12,54,8.70
2008,04,11,12,55,8.80
2008,04,11,12,56,8.80
2008,04,11,12,57,8.80
2008,04,11,12,58,8.80
2008,04,11,12,59,8.80
2008,04,11,13,00,8.80
2008,04,11,13,01,8.90
2008,04,11,13,02,8.90
2008,04,11,13,03,8.90
2008,04,11,13,04,8.90
2008,04,11,13,05,9.00
2008,04,11,13,06,9.10
2008,04,11,13,07,9.10
2008,04,11,13,08,9.20
2008,04,11,13,09,9.20
2008,04,11,13,10,9.30
2008,04,11,13,11,9.30
2008,04,11,13,12,9.30
2008,04,11,13,13,9.30
2008,04,11,13,14,9.30
2008,04,11,13,15,9.40
2008,04,11,13,16,9.40
2008,04,11,13,17,9.40
2008,04,11,13,18,9.40
2008,04,11,13,19,9.50
2008,04,11,13,20,9.50
2008,04,11,13,21,9.60
2008,04,11,13,22,9.60
2008,04,11,13,23,9.70
2008,04,11,13,24,9.70
2008,04,11,13,25,9.70
2008,04,11,13,26,9.80
2008,04,11,13,27,9.80
2008,04,11,13,28,9.90
2008,04,11,13,29,9.90
2008,04,11,13,30,9.90
2008,04,11,13,31,10.00
2008,04,11,13,32,10.10
2008,04,11,13,33,10.20
2008,04,11,13,34,10.30
2008,04,11,13,35,10.40
2008,04,11,13,36,10.50
2008,04,11,13,37,10.60
2008,04,11,13,38,10.70
2008,04,11,13,39,10.80
2008,04,11,13,40,10.90
2008,04,11,13,41,11.00
2008,04,11,13,42,11.10
2008,04,11,13,43,11.10
2008,04,11,13,44,11.10
2008,04,11,13,45,11.10
2008,04,11,13,46,11.20
2008,04,11,13,47,11.20
2008,04,11,13,48,11.20
2008,04,11,13,49,11.20
2008,04,11,13,50,11.20
2008,04,11,13,51,11.20
2008,04,11,13,52,11.20
2008,04,11,13,53,11.10
2008,04,11,13,54,11.00
2008,04,11,13,55,10.90
2008,04,11,13,56,10.90
2008,04,11,13,57,10.90
2008,04,11,13,58,11.00
2008,04,11,13,59,11.00
2008,04,11,14,00,11.10
2008,04,11,14,01,11.00
2008,04,11,14,02,11.00
2008,04,11,14,03,11.10
2008,04,11,14,04,11.10
2008,04,11,14,05,11.20
2008,04,11,14,06,11.20
2008,04,11,14,07,11.20
2008,04,11,14,08,11.20
2008,04,11,14,09,11.20
2008,04,11,14,10,11.20
2008,04,11,14,11,11.20
2008,04,11,14,12,11.10
2008,04,11,14,13,11.10
2008,04,11,14,14,11.20
2008,04,11,14,15,11.30
2008,04,11,14,16,11.40
2008,04,11,14,17,11.50
2008,04,11,14,18,11.60
2008,04,11,14,19,11.60
2008,04,11,14,20,11.70
2008,04,11,14,21,11.70
2008,04,11,14,22,11.70
2008,04,11,14,23,11.70
2008,04,11,14,24,11.60
2008,04,11,14,25,11.50
2008,04,11,14,26,11.50
2008,04,11,14,27,11.60
2008,04,11,14,28,11.80
2008,04,11,14,29,11.90
2008,04,11,14,30,11.90
2008,04,11,14,31,11.80
2008,04,11,14,32,11.80
2008,04,11,14,33,11.80
2008,04,11,14,34,11.80
2008,04,11,14,35,11.70
2008,04,11,14,36,11.60
2008,04,11,14,37,11.60
2008,04,11,14,38,11.60
2008,04,11,14,39,11.70
2008,04,11,14,40,11.80
2008,04,11,14,41,12.00
2008,04,11,14,42,12.00
2008,04,11,14,43,12.10
2008,04,11,14,44,12.00
2008,04,11,14,45,11.90
2008,04,11,14,46,11.90
2008,04,11,14,47,11.90
2008,04,11,14,48,11.90
2008,04,11,14,49,11.90
2008,04,11,14,50,12.00
2008,04,11,14,51,12.10
2008,04,11,14,52,12.20
2008,04,11,14,53,12.30
2008,04,11,14,54,12.40
2008,04,11,14,55,12.50
2008,04,11,14,56,12.60
2008,04,11,14,57,12.70
2008,04,11,14,58,12.70
2008,04,11,14,59,12.90
2008,04,11,15,00,13.00
2008,04,11,15,01,13.00
2008,04,11,15,02,13.10
2008,04,11,15,03,13.20
2008,04,11,15,04,13.30
2008,04,11,15,05,13.40
2008,04,11,15,06,13.40
2008,04,11,15,07,13.30
2008,04,11,15,08,13.10
2008,04,11,15,09,12.90
2008,04,11,15,10,12.80
2008,04,11,15,11,12.70
2008,04,11,15,12,12.60
2008,04,11,15,13,12.60
2008,04,11,15,14,12.60
2008,04,11,15,15,12.60
2008,04,11,15,16,12.60
2008,04,11,15,17,12.50
2008,04,11,15,18,12.40
2008,04,11,15,19,12.30
2008,04,11,15,20,12.20
2008,04,11,15,21,12.20
2008,04,11,15,22,12.30
2008,04,11,15,23,12.30
2008,04,11,15,24,12.40
2008,04,11,15,25,12.50
2008,04,11,15,26,12.50
2008,04,11,15,27,12.60
2008,04,11,15,28,12.70
2008,04,11,15,29,12.90
2008,04,11,15,30,13.00
2008,04,11,15,31,13.20
2008,04,11,15,32,13.30
2008,04,11,15,33,13.40
2008,04,11,15,34,13.50
2008,04,11,15,35,13.60
2008,04,11,15,36,13.60
2008,04,11,15,37,13.70
2008,04,11,15,38,13.70
2008,04,11,15,39,13.80
2008,04,11,15,40,13.80
2008,04,11,15,41,13.70
2008,04,11,15,42,13.70
2008,04,11,15,43,13.60
2008,04,11,15,44,13.50
2008,04,11,15,45,13.50
2008,04,11,15,46,13.50
2008,04,11,15,47,13.50
2008,04,11,15,48,13.50
2008,04,11,15,49,13.40
2008,04,11,15,50,13.30
2008,04,11,15,51,13.30
2008,04,11,15,52,13.30
2008,04,11,15,53,13.30
2008,04,11,15,54,13.40
2008,04,11,15,55,13.50
2008,04,11,15,56,13.50
2008,04,11,15,57,13.60
2008,04,11,15,58,13.60
2008,04,11,15,59,13.50
2008,04,11,16,00,13.40
2008,04,11,16,01,13.30
2008,04,11,16,02,13.20
2008,04,11,16,03,13.20
2008,04,11,16,04,13.20
2008,04,11,16,05,13.10
2008,04,11,16,06,13.10
2008,04,11,16,07,13.10
2008,04,11,16,08,13.20
2008,04,11,16,09,13.10
2008,04,11,16,10,13.00
2008,04,11,16,11,13.00
2008,04,11,16,12,13.00
2008,04,11,16,13,13.00
2008,04,11,16,14,12.90
2008,04,11,16,15,12.90
2008,04,11,16,16,12.90
2008,04,11,16,17,12.90
2008,04,11,16,18,12.90
2008,04,11,16,19,13.00
2008,04,11,16,20,13.10
2008,04,11,16,21,13.10
2008,04,11,16,22,13.10
2008,04,11,16,23,13.10
2008,04,11,16,24,13.10
2008,04,11,16,25,13.10
2008,04,11,16,26,13.10
2008,04,11,16,27,13.00
2008,04,11,16,28,13.00
2008,04,11,16,29,12.90
2008,04,11,16,30,12.90
2008,04,11,16,31,12.90
2008,04,11,16,32,13.00
2008,04,11,16,33,13.00
2008,04,11,16,34,13.00
2008,04,11,16,35,13.00
2008,04,11,16,36,12.90
2008,04,11,16,37,12.90
2008,04,11,16,38,12.80
2008,04,11,16,39,12.80
2008,04,11,16,40,12.80
2008,04,11,16,41,12.70
2008,04,11,16,42,12.70
2008,04,11,16,43,12.70
2008,04,11,16,44,12.70
2008,04,11,16,45,12.70
2008,04,11,16,46,12.70
2008,04,11,16,47,12.70
2008,04,11,16,48,12.70
2008,04,11,16,49,12.60
2008,04,11,16,50,12.60
2008,04,11,16,51,12.60
2008,04,11,16,52,12.60
2008,04,11,16,53,12.60
2008,04,11,16,54,12.60
2008,04,11,16,55,12.60
2008,04,11,16,56,12.50
2008,04,11,16,57,12.60
2008,04,11,16,58,12.60
2008,04,11,16,59,12.60
2008,04,11,17,00,12.60
2008,04,11,17,01,12.60
2008,04,11,17,02,12.60
2008,04,11,17,03,12.60
2008,04,11,17,04,12.60
2008,04,11,17,05,12.60
2008,04,11,17,06,12.60
2008,04,11,17,07,12.60
2008,04,11,17,08,12.60
2008,04,11,17,09,12.50
2008,04,11,17,10,12.40
2008,04,11,17,11,12.40
2008,04,11,17,12,12.40
2008,04,11,17,13,12.40
2008,04,11,17,14,12.40
2008,04,11,17,15,12.40
2008,04,11,17,16,12.40
2008,04,11,17,17,12.30
2008,04,11,17,18,12.30
2008,04,11,17,19,12.20
2008,04,11,17,20,12.20
2008,04,11,17,21,12.20
2008,04,11,17,22,12.20
2008,04,11,17,23,12.20
2008,04,11,17,24,12.20
2008,04,11,17,25,12.20
2008,04,11,17,26,12.20
2008,04,11,17,27,12.20
2008,04,11,17,28,12.20
2008,04,11,17,29,12.20
2008,04,11,17,30,12.20
2008,04,11,17,31,12.20
2008,04,11,17,32,12.10
2008,04,11,17,33,12.10
2008,04,11,17,34,12.10
2008,04,11,17,35,12.10
2008,04,11,17,36,12.00
2008,04,11,17,37,11.90
2008,04,11,17,38,11.90
2008,04,11,17,39,11.90
2008,04,11,17,40,11.90
2008,04,11,17,41,11.90
2008,04,11,17,42,11.90
2008,04,11,17,43,11.90
2008,04,11,17,44,11.80
2008,04,11,17,45,11.80
2008,04,11,17,46,11.80
2008,04,11,17,47,11.80
2008,04,11,17,48,11.80
2008,04,11,17,49,11.80
2008,04,11,17,50,11.80
2008,04,11,17,51,11.80
2008,04,11,17,52,11.80
2008,04,11,17,53,11.80
2008,04,11,17,54,11.80